FW8286 Weather Reports


Display with metric or nautical units.
time (UTC)temp
F
wind
direction
speed
MPH
gust
MPH
rain 1hr
in
rain 24hr
in
rain mn
in
humidity
%
barometer
mb
20260903065026 77 9 1.0 3.0 0.00 0.00 0.00 81 1018.5
20260903064600 77 9 1.0 6.0 0.00 0.00 0.00 81 1018.4
20260903064029 77 9 1.0 7.0 0.00 0.00 0.00 81 1018.6
20260903063528 78 5 3.0 11.0 0.00 0.00 0.00 80 1018.7
20260903063101 78 360 3.0 11.0 0.00 0.00 0.00 81 1018.7
20260903062529 79 5 3.0 8.0 0.00 0.00 0.00 82 1018.9
20260903062035 80 0 0.0 9.0 0.00 0.00 0.00 83 1018.9
20260903061555 80 9 3.0 12.0 0.00 0.00 0.00 83 1019.0
20260903061029 80 343 4.0 12.0 0.00 0.00 0.00 83 1018.8
20260903060527 80 339 8.0 14.0 0.00 0.00 0.00 83 1018.9
20260903060050 80 5 8.0 14.0 0.00 0.00 0.00 83 1019.1
20260903055527 80 339 1.0 5.0 0.00 0.00 0.00 82 1018.7
20260903055031 80 208 0.0 3.0 0.00 0.00 0.00 82 1018.2
20260903054554 80 196 0.0 3.0 0.00 0.00 0.00 81 1018.3
20260903054030 80 0 0.0 4.0 0.00 0.00 0.00 81 1018.2
20260903053532 80 195 1.0 4.0 0.00 0.00 0.00 81 1018.0
20260903053059 81 192 1.0 5.0 0.00 0.00 0.00 81 1018.1
20260903052529 81 0 1.0 6.0 0.00 0.00 0.00 81 1018.1
20260903052028 81 218 2.0 6.0 0.00 0.00 0.00 80 1018.1
20260903051555 81 211 2.0 7.0 0.00 0.00 0.00 80 1017.9
20260903051028 81 269 1.0 9.0 0.00 0.00 0.00 80 1018.0
20260903050525 81 202 3.0 10.0 0.00 0.00 0.00 80 1017.9
20260903050056 81 222 2.0 10.0 0.00 0.00 0.00 80 1017.8
20260903045526 81 202 3.0 9.0 0.00 0.00 0.00 79 1017.6
20260903045028 81 219 3.0 11.0 0.00 0.00 0.00 79 1017.6
20260903044554 81 229 3.0 11.0 0.00 0.00 0.00 79 1017.6
20260903044025 81 240 2.0 11.0 0.00 0.00 0.00 80 1017.6
20260903043530 81 223 1.0 11.0 0.00 0.00 0.00 80 1017.6
20260903043056 81 209 3.0 11.0 0.00 0.00 0.00 80 1017.6
20260903042524 81 205 3.0 12.0 0.00 0.00 0.00 80 1017.4
20260903042025 81 211 3.0 12.0 0.00 0.00 0.00 80 1017.5
20260903041555 81 208 4.0 10.0 0.00 0.00 0.00 80 1017.4
20260903041025 81 221 5.0 10.0 0.00 0.00 0.00 80 1017.3
20260903040527 81 193 3.0 10.0 0.00 0.00 0.00 80 1017.2
20260903040054 81 206 5.0 12.0 0.00 0.00 0.00 80 1017.1
20260903035524 80 203 5.0 12.0 0.00 0.00 0.00 80 1017.1
20260903035025 80 197 5.0 10.0 0.00 0.00 0.00 80 1017.0
20260903034552 81 205 5.0 12.0 0.00 0.00 0.00 80 1017.0
20260903034025 81 210 6.0 12.0 0.00 0.00 0.00 79 1016.8
20260903033531 81 213 8.0 12.0 0.00 0.00 0.00 79 1016.7
20260903033109 81 209 7.0 12.0 0.00 0.00 0.00 79 1016.6
20260903032529 81 216 8.0 12.0 0.00 0.00 0.00 79 1016.6
20260903032025 81 214 7.0 12.0 0.00 0.00 0.00 79 1016.5
20260903031629 81 202 6.0 12.0 0.00 0.00 0.00 79 1016.7
20260903031027 81 188 6.0 11.0 0.00 0.00 0.00 79 1016.9
20260903030527 81 227 7.0 11.0 0.00 0.00 0.00 79 1017.1
20260903030056 81 215 6.0 9.0 0.00 0.00 0.00 79 1017.2
20260903025525 81 200 6.0 9.0 0.00 0.00 0.00 79 1017.3
20260903025026 81 201 6.0 9.0 0.00 0.00 0.00 78 1017.5
20260903024547 81 221 5.0 10.0 0.00 0.00 0.00 78 1017.6
20260903024025 81 198 5.0 10.0 0.00 0.00 0.00 78 1017.7
20260903023527 81 208 5.0 10.0 0.00 0.00 0.00 78 1017.8
20260903023056 81 207 5.0 11.0 0.00 0.00 0.00 78 1017.7
20260903022525 81 221 6.0 11.0 0.00 0.00 0.00 78 1017.7
20260903022029 81 204 4.0 8.0 0.00 0.00 0.00 78 1017.7
20260903021552 81 195 4.0 7.0 0.00 0.00 0.00 78 1017.9
20260903021030 81 202 4.0 7.0 0.00 0.00 0.00 78 1017.8
20260903020531 81 211 4.0 7.0 0.00 0.00 0.00 79 1017.9
20260903020054 81 197 5.0 7.0 0.00 0.00 0.00 79 1017.8
20260903015529 80 185 4.0 7.0 0.00 0.00 0.00 79 1017.9
20260903015028 80 194 3.0 7.0 0.00 0.00 0.00 79 1017.9
20260903014600 80 178 3.0 6.0 0.00 0.00 0.00 79 1017.9
20260903014028 81 198 3.0 5.0 0.00 0.00 0.00 78 1018.0
20260903013528 81 198 3.0 5.0 0.00 0.00 0.00 78 1018.0
20260903013055 81 198 3.0 7.0 0.00 0.00 0.00 78 1018.0
20260903012530 81 194 4.0 7.0 0.00 0.00 0.00 78 1018.0
20260903012027 81 197 4.0 7.0 0.00 0.00 0.00 78 1017.9
20260903011556 81 194 3.0 6.0 0.00 0.00 0.00 79 1018.0
20260903011028 81 197 2.0 5.0 0.00 0.00 0.00 79 1018.0
20260903010526 81 209 2.0 5.0 0.00 0.00 0.00 79 1017.9
20260903010050 81 206 3.0 6.0 0.00 0.00 0.00 79 1017.8
20260903005531 81 206 3.0 6.0 0.00 0.00 0.00 78 1017.8
20260903005027 81 205 3.0 7.0 0.00 0.00 0.00 78 1017.8
20260903004558 82 209 4.0 7.0 0.00 0.00 0.00 78 1017.7
20260903004028 82 208 3.0 5.0 0.00 0.00 0.00 78 1017.6
20260903003531 82 202 3.0 5.0 0.00 0.00 0.00 77 1017.7
20260903003101 82 209 4.0 6.0 0.00 0.00 0.00 77 1017.5
20260903002529 82 197 3.0 6.0 0.00 0.00 0.00 77 1017.4
20260903002027 83 201 3.0 6.0 0.00 0.00 0.00 77 1017.6
20260903001549 83 204 3.0 6.0 0.00 0.00 0.00 76 1017.4
20260903001026 83 200 3.0 5.0 0.00 0.00 0.00 76 1017.4
20260903000529 84 200 2.0 5.0 0.00 0.00 0.00 76 1017.4
20260903000052 84 200 3.0 6.0 0.00 0.00 0.00 75 1017.4
20260902235530 85 199 3.0 7.0 0.00 0.00 0.00 74 1017.4
20260902235029 85 201 4.0 7.0 0.00 0.00 0.00 74 1017.4
20260902234559 86 201 3.0 6.0 0.00 0.00 0.00 73 1017.5
20260902234028 86 202 3.0 6.0 0.00 0.00 0.00 72 1017.4
20260902233528 87 202 3.0 6.0 0.00 0.00 0.00 71 1017.5
20260902233101 87 203 3.0 8.0 0.00 0.00 0.00 71 1017.5
20260902232529 88 209 4.0 8.0 0.00 0.00 0.00 70 1017.3
20260902232028 88 199 4.0 8.0 0.00 0.00 0.00 69 1017.4
20260902231602 88 199 4.0 7.0 0.00 0.00 0.00 68 1017.3
20260902231029 89 191 4.0 7.0 0.00 0.00 0.00 69 1017.4
20260902230535 89 198 3.0 5.0 0.00 0.00 0.00 68 1017.3
20260902230053 89 201 2.0 7.0 0.00 0.00 0.00 67 1017.2
20260902225526 89 199 4.0 10.0 0.00 0.00 0.00 66 1017.4
20260902225032 90 226 5.0 10.0 0.00 0.00 0.00 65 1017.2
20260902224600 90 202 4.0 9.0 0.00 0.00 0.00 64 1017.3
20260902224029 90 294 5.0 12.0 0.00 0.00 0.00 64 1017.4
20260902223531 90 184 3.0 12.0 0.00 0.00 0.00 63 1017.3
20260902223100 90 234 3.0 12.0 0.00 0.00 0.00 64 1017.3
20260902222527 90 232 3.0 12.0 0.00 0.00 0.00 64 1017.4
20260902222032 90 203 5.0 12.0 0.00 0.00 0.00 64 1017.4
20260902221555 90 217 6.0 12.0 0.00 0.00 0.00 64 1017.3
20260902221028 90 209 7.0 12.0 0.00 0.00 0.00 63 1017.5
20260902220526 91 194 5.0 11.0 0.00 0.00 0.00 64 1017.5
20260902220057 91 221 7.0 11.0 0.00 0.00 0.00 63 1017.3
20260902215529 91 208 5.0 15.0 0.00 0.00 0.00 64 1017.4
20260902215030 91 191 6.0 15.0 0.00 0.00 0.00 62 1017.4
20260902214551 91 195 8.0 13.0 0.00 0.00 0.00 63 1017.5
20260902214029 91 209 4.0 10.0 0.00 0.00 0.00 63 1017.5
20260902213528 91 263 3.0 9.0 0.00 0.00 0.00 63 1017.5
20260902213104 92 240 4.0 9.0 0.00 0.00 0.00 62 1017.7
20260902212528 92 266 4.0 12.0 0.00 0.00 0.00 60 1017.6
20260902212027 93 250 5.0 12.0 0.00 0.00 0.00 60 1017.7
20260902211554 93 210 2.0 12.0 0.00 0.00 0.00 60 1017.7
20260902211032 93 232 5.0 12.0 0.00 0.00 0.00 59 1017.8
20260902210527 93 196 5.0 10.0 0.00 0.00 0.00 58 1017.9
20260902210050 94 207 4.0 14.0 0.00 0.00 0.00 59 1017.9
20260902205529 94 255 6.0 14.0 0.00 0.00 0.00 58 1018.0
20260902205029 94 232 7.0 14.0 0.00 0.00 0.00 57 1017.9
20260902204548 94 217 6.0 13.0 0.00 0.00 0.00 57 1018.0
20260902204030 94 209 3.0 11.0 0.00 0.00 0.00 59 1018.0
20260902203529 94 236 5.0 11.0 0.00 0.00 0.00 58 1018.2
20260902203109 94 246 4.0 11.0 0.00 0.00 0.00 57 1018.1
20260902202528 94 248 4.0 11.0 0.00 0.00 0.00 58 1018.1
20260902202029 94 237 6.0 14.0 0.00 0.00 0.00 58 1018.2
20260902201556 94 273 6.0 14.0 0.00 0.00 0.00 58 1018.3
20260902201027 94 192 4.0 12.0 0.00 0.00 0.00 60 1018.3
20260902200526 94 263 4.0 12.0 0.00 0.00 0.00 59 1018.2
20260902200057 94 204 5.0 12.0 0.00 0.00 0.00 57 1018.3
20260902195533 94 227 5.0 13.0 0.00 0.00 0.00 58 1018.4
20260902195034 94 277 4.0 13.0 0.00 0.00 0.00 59 1018.4
20260902194548 94 252 6.0 14.0 0.00 0.00 0.00 58 1018.4
20260902194029 94 185 4.0 15.0 0.00 0.00 0.00 59 1018.4
20260902193528 94 205 10.0 15.0 0.00 0.00 0.00 59 1018.4
20260902193058 95 206 5.0 9.0 0.00 0.00 0.00 59 1018.6
20260902192527 95 268 3.0 9.0 0.00 0.00 0.00 59 1018.5
20260902192033 94 293 3.0 10.0 0.00 0.00 0.00 62 1018.6
20260902191555 94 262 5.0 11.0 0.00 0.00 0.00 58 1018.7
20260902191033 94 259 3.0 11.0 0.00 0.00 0.00 60 1018.7
20260902190528 94 216 5.0 14.0 0.00 0.00 0.00 60 1018.8
20260902190052 94 188 5.0 14.0 0.00 0.00 0.00 61 1018.7
20260902185526 94 247 4.0 11.0 0.00 0.00 0.00 61 1018.9
20260902185026 93 275 3.0 12.0 0.00 0.00 0.00 61 1018.9
20260902184558 94 205 6.0 12.0 0.00 0.00 0.00 59 1019.0
20260902184032 94 266 5.0 9.0 0.00 0.00 0.00 62 1019.0
20260902183527 94 219 4.0 10.0 0.00 0.00 0.00 61 1019.1
20260902183057 93 259 5.0 12.0 0.00 0.00 0.00 61 1019.2
20260902182529 93 234 5.0 12.0 0.00 0.00 0.00 62 1019.1
20260902182030 93 200 4.0 11.0 0.00 0.00 0.00 64 1019.2
20260902181556 93 203 5.0 9.0 0.00 0.00 0.00 64 1019.2
20260902181026 93 252 3.0 9.0 0.00 0.00 0.00 64 1019.3
20260902180527 92 269 6.0 12.0 0.00 0.00 0.00 63 1019.3
20260902180055 92 261 6.0 12.0 0.00 0.00 0.00 62 1019.3
20260902175526 92 195 3.0 7.0 0.00 0.00 0.00 67 1019.3
20260902175026 92 220 3.0 10.0 0.00 0.00 0.00 66 1019.4
20260902174548 92 233 4.0 10.0 0.00 0.00 0.00 63 1019.5
20260902174029 92 223 4.0 11.0 0.00 0.00 0.00 64 1019.6
20260902173531 92 198 6.0 11.0 0.00 0.00 0.00 65 1019.6
20260902173057 92 184 3.0 13.0 0.00 0.00 0.00 65 1019.8
20260902172527 92 274 2.0 14.0 0.00 0.00 0.00 67 1019.9
20260902172027 91 191 7.0 14.0 0.00 0.00 0.00 69 1020.1
20260902171601 91 209 4.0 9.0 0.00 0.00 0.00 69 1020.1
20260902171034 90 172 3.0 8.0 0.00 0.00 0.00 71 1020.2
20260902170528 90 213 5.0 9.0 0.00 0.00 0.00 69 1020.1
20260902170057 89 210 4.0 9.0 0.00 0.00 0.00 68 1020.3
20260902165527 89 194 3.0 8.0 0.00 0.00 0.00 72 1020.3
20260902165029 89 233 2.0 8.0 0.00 0.00 0.00 69 1020.4
20260902164555 89 195 4.0 8.0 0.00 0.00 0.00 71 1020.4
20260902164027 89 211 4.0 8.0 0.00 0.00 0.00 69 1020.4
20260902163526 89 182 3.0 6.0 0.00 0.00 0.00 72 1020.4
20260902163101 89 197 3.0 5.0 0.00 0.00 0.00 71 1020.4
20260902162526 89 200 2.0 5.0 0.00 0.00 0.00 70 1020.4
20260902162030 89 202 2.0 7.0 0.00 0.00 0.00 70 1020.4
20260902161601 89 205 3.0 10.0 0.00 0.00 0.00 69 1020.4
20260902161030 89 251 2.0 10.0 0.00 0.00 0.00 70 1020.4
20260902160529 89 169 2.0 10.0 0.00 0.00 0.00 71 1020.4
20260902160100 89 206 1.0 5.0 0.00 0.00 0.00 70 1020.4
20260902155528 88 325 2.0 5.0 0.00 0.00 0.00 70 1020.5
20260902155032 88 209 3.0 8.0 0.00 0.00 0.00 71 1020.4
20260902154553 88 0 2.0 8.0 0.00 0.00 0.00 74 1020.5
20260902154027 88 222 2.0 6.0 0.00 0.00 0.00 73 1020.4
20260902153526 88 239 2.0 7.0 0.00 0.00 0.00 72 1020.4
20260902153048 87 211 2.0 8.0 0.00 0.00 0.00 73 1020.5
20260902152525 87 204 4.0 8.0 0.00 0.00 0.00 74 1020.5
20260902152029 86 291 2.0 7.0 0.00 0.00 0.00 77 1020.5
20260902151554 86 227 4.0 7.0 0.00 0.00 0.00 74 1020.5
20260902151027 86 211 1.0 5.0 0.00 0.00 0.00 75 1020.6
20260902150526 86 205 2.0 6.0 0.00 0.00 0.00 76 1020.5
20260902150055 86 240 3.0 9.0 0.00 0.00 0.00 77 1020.5
20260902145529 86 212 3.0 9.0 0.00 0.00 0.00 77 1020.5
20260902145028 86 193 1.0 8.0 0.00 0.00 0.00 77 1020.5
20260902144551 86 223 2.0 6.0 0.00 0.00 0.00 74 1020.5
20260902144027 85 250 2.0 6.0 0.00 0.00 0.00 78 1020.5
20260902143527 85 275 2.0 8.0 0.00 0.00 0.00 77 1020.5
20260902143049 85 223 2.0 8.0 0.00 0.00 0.00 78 1020.5
20260902142527 84 272 4.0 8.0 0.00 0.00 0.00 78 1020.4
20260902142028 84 225 2.0 10.0 0.00 0.00 0.00 80 1020.4
20260902141554 83 236 3.0 10.0 0.00 0.00 0.00 81 1020.4
20260902141027 83 211 2.0 10.0 0.00 0.00 0.00 81 1020.2
20260902140526 82 227 3.0 10.0 0.00 0.00 0.00 81 1020.1
20260902140055 82 198 5.0 10.0 0.00 0.00 0.00 82 1020.1
20260902135527 82 233 4.0 9.0 0.00 0.00 0.00 83 1020.1
20260902135027 82 205 2.0 10.0 0.00 0.00 0.00 82 1020.1
20260902134558 81 209 3.0 10.0 0.00 0.00 0.00 83 1020.0
20260902134029 81 210 4.0 10.0 0.00 0.00 0.00 83 1020.1
20260902133528 81 186 4.0 8.0 0.00 0.00 0.00 84 1020.0
20260902133048 81 205 4.0 8.0 0.00 0.00 0.00 84 1020.1
20260902132527 80 205 4.0 9.0 0.00 0.00 0.00 85 1020.0
20260902132025 80 201 5.0 9.0 0.00 0.00 0.00 84 1020.0
20260902131557 80 215 4.0 10.0 0.00 0.00 0.00 85 1020.0
20260902131028 79 202 4.0 10.0 0.00 0.00 0.00 85 1020.1
20260902130528 79 202 6.0 9.0 0.00 0.00 0.00 86 1020.0
20260902130051 79 206 3.0 6.0 0.00 0.00 0.00 86 1020.0
20260902125528 79 211 2.0 6.0 0.00 0.00 0.00 87 1020.1
20260902125033 78 204 2.0 6.0 0.00 0.00 0.00 88 1020.2
20260902124550 78 198 3.0 6.0 0.00 0.00 0.00 87 1020.1
20260902124025 78 207 3.0 6.0 0.00 0.00 0.00 88 1020.3
20260902123525 78 200 3.0 5.0 0.00 0.00 0.00 88 1020.2
20260902123104 77 203 2.0 4.0 0.00 0.00 0.00 88 1020.3
20260902122526 77 205 2.0 3.0 0.00 0.00 0.00 89 1020.2
20260902122028 77 205 1.0 4.0 0.00 0.00 0.00 89 1020.3
20260902121555 77 205 1.0 5.0 0.00 0.00 0.00 89 1020.1
20260902121026 76 205 2.0 5.0 0.00 0.00 0.00 89 1020.1
20260902120530 76 207 1.0 6.0 0.00 0.00 0.00 90 1020.1
20260902120106 76 0 0.0 8.0 0.00 0.00 0.00 91 1020.1
20260902115525 75 201 4.0 8.0 0.00 0.00 0.00 91 1020.0
20260902115026 75 198 4.0 7.0 0.00 0.00 0.00 91 1019.8
20260902114550 75 202 4.0 6.0 0.00 0.00 0.00 92 1019.7
20260902114026 74 210 3.0 5.0 0.00 0.00 0.00 92 1019.7
20260902113526 74 203 3.0 5.0 0.00 0.00 0.00 92 1019.8
20260902113047 74 203 2.0 4.0 0.00 0.00 0.00 92 1019.7
20260902112525 74 204 2.0 4.0 0.00 0.00 0.00 92 1019.6
20260902112028 74 203 2.0 4.0 0.00 0.00 0.00 92 1019.5
20260902111555 74 203 2.0 5.0 0.00 0.00 0.00 92 1019.5
20260902111026 73 205 2.0 5.0 0.00 0.00 0.00 92 1019.5
20260902110528 73 205 2.0 5.0 0.00 0.00 0.00 92 1019.5
20260902110052 73 219 2.0 5.0 0.00 0.00 0.00 92 1019.4
20260902105528 73 203 3.0 5.0 0.00 0.00 0.00 92 1019.5
20260902105028 73 203 3.0 6.0 0.00 0.00 0.00 92 1019.4
20260902104552 73 205 3.0 6.0 0.00 0.00 0.00 92 1019.2
20260902104027 73 212 3.0 5.0 0.00 0.00 0.00 92 1019.3
20260902103525 74 205 2.0 5.0 0.00 0.00 0.00 92 1019.3
20260902103049 73 206 2.0 5.0 0.00 0.00 0.00 93 1019.3
20260902102530 73 204 2.0 5.0 0.00 0.00 0.00 93 1019.2
20260902102030 73 205 1.0 4.0 0.00 0.00 0.00 93 1019.3
20260902101549 73 0 1.0 4.0 0.00 0.00 0.00 94 1019.3
20260902101030 73 207 1.0 5.0 0.00 0.00 0.00 94 1019.2
20260902100529 73 207 2.0 5.0 0.00 0.00 0.00 94 1019.2
20260902100105 73 208 3.0 5.0 0.00 0.00 0.00 95 1019.2
20260902095526 72 195 3.0 5.0 0.00 0.00 0.00 94 1019.1
20260902095027 72 188 3.0 5.0 0.00 0.00 0.00 95 1019.2
20260902094554 72 183 2.0 4.0 0.00 0.00 0.00 95 1019.3
20260902094026 72 182 2.0 5.0 0.00 0.00 0.00 95 1019.4
20260902093526 72 182 3.0 6.0 0.00 0.00 0.00 95 1019.4
20260902093049 71 184 3.0 6.0 0.00 0.00 0.00 95 1019.4
20260902092529 71 167 4.0 6.0 0.00 0.00 0.00 95 1019.4
20260902092029 71 164 3.0 5.0 0.00 0.00 0.00 94 1019.5
20260902091556 71 163 1.0 4.0 0.00 0.00 0.00 95 1019.6
20260902091028 71 163 1.0 4.0 0.00 0.00 0.00 95 1019.6
20260902090528 71 163 1.0 4.0 0.00 0.00 0.00 95 1019.5
20260902090053 71 163 2.0 4.0 0.00 0.00 0.00 94 1019.6
20260902085530 71 163 0.0 2.0 0.00 0.00 0.00 95 1019.7
20260902085028 71 0 0.0 2.0 0.00 0.00 0.00 95 1019.7
20260902084550 71 0 0.0 4.0 0.00 0.00 0.00 95 1019.7
20260902084026 71 163 1.0 4.0 0.00 0.00 0.00 95 1019.6
20260902083525 71 163 2.0 4.0 0.00 0.00 0.00 95 1019.5
20260902083052 71 163 1.0 5.0 0.00 0.00 0.00 95 1019.4
20260902082526 71 163 2.0 5.0 0.00 0.00 0.00 95 1019.5
20260902082026 71 168 3.0 5.0 0.00 0.00 0.00 95 1019.3
20260902081555 71 168 2.0 4.0 0.00 0.00 0.00 95 1019.3
20260902081029 71 168 2.0 4.0 0.00 0.00 0.00 95 1019.4
20260902080528 71 168 2.0 4.0 0.00 0.00 0.00 95 1019.3
20260902080057 71 168 2.0 4.0 0.00 0.00 0.00 95 1019.4
20260902075525 71 168 2.0 4.0 0.00 0.00 0.00 95 1019.3
20260902075029 71 168 2.0 4.0 0.00 0.00 0.00 95 1019.2
20260902074556 71 168 2.0 4.0 0.00 0.00 0.00 95 1019.2
20260902074026 71 168 1.0 4.0 0.00 0.00 0.00 95 1019.2
20260902073525 72 168 2.0 5.0 0.00 0.00 0.00 95 1019.2
20260902073048 72 168 3.0 5.0 0.00 0.00 0.00 95 1019.2
20260902072526 72 169 3.0 5.0 0.00 0.00 0.00 95 1019.3
20260902072025 72 169 3.0 5.0 0.00 0.00 0.00 95 1019.2
20260902071558 72 169 3.0 5.0 0.00 0.00 0.00 95 1019.4
20260902071028 72 170 3.0 5.0 0.00 0.00 0.00 95 1019.3
20260902070528 72 170 2.0 4.0 0.00 0.00 0.00 95 1019.4
20260902070058 72 170 2.0 4.0 0.00 0.00 0.00 95 1019.3
20260902065531 72 170 1.0 4.0 0.00 0.00 0.00 95 1019.3